COSMOS 1275 DEB, 12771

Orbit data source: Space-Track

COSMOS 1275 DEB, 12771 is space debris in LEO originally from a launch on Thu, 04 Jun 1981 UTC launched from the Plesetsk Missile And Space Complex (PKMTR). Debris objects in space refer to the collection of defunct objects orbiting the Earth. Examples of debris include non-operational satellites, rocket bodies, and fragments generated from explosions, collisions, or faulty payload assembly.

Loading next visibility...
Identifier
12771, 1981-053DQ
Orbit
LEO
Country
Flag of CISCIS
Related business
Manufacturer
Unknown
Mission
Spacecraft
Bus & Motor
Unknown
Mass
Unknown
Launch date (UTC)
1981-06-04 (45 years ago)
Launch vehicle
Unknown
Launch site
Plesetsk Missile And Space Complex (PKMTR)
Object type
Payload
Rocket body
Debris
Shape & HBR
Unknown shape, 0.1 m
Radar Cross Section
Small (<0.1 m²)

Expand to show TLE details & history
Last TLE update: 19 hours ago

TLE from 19 hours ago
0 COSMOS 1275 DEB
1 12771U 81053DQ  26104.16955633  .00000704  00000-0  74337-3 0  9994
2 12771  82.8704 174.4935 0146694 327.1060  60.4302 13.68915527211300
Epoch: 2026-04-14T04:04Z
TLE epoch observation values (Epoch: 2026-04-14T04:04:09.666Z)
Latitude
28.81143°
Longitude
-84.9722°
Altitude
954.789 km
Speed
7.403 km/s
True Right ascension
11h 53m 40s
True Declination
28° 40' 13"
Sunlit
Object was in full shadow at epoch
Visualization orbit readout
Latitude
Unknown
Longitude
Unknown
Altitude
Unknown
Speed
Unknown
Apparent Right ascension
Unknown
Apparent Declination
Unknown
Sunlit
N/A
Visualization observer readout
Local Sidereal Time
05:59:40
Azimuth
Unknown
Elevation
Unknown
Doppler factor
Unknown
Orbital elements
Apogee altitude
1,108.868 km
Perigee altitude
892.384 km
Semi-major axis
7,378.763 km
Eccentricity
0.01467
Inclination
82.8704°
RAAN
174.4935°
Arg. of periapsis
327.106°
True anomaly
61.90543°
Mean anomaly
60.4302°
Eccentric anomaly
61.16649°
Mean motion
3.42427 °/min
Orbital period
105.13 mins
BSTAR
0.00074337
Loading maneuver chart data...
Computing Atmospheric mass density...
Loading historical data...
Loading historical data...
Loading historical data...
Loading historical data...
Loading historical data...
Loading historical data...
Loading historical data...

Documentation

Showing up to 5 results
|